This is the latest recevied weather packets stored in our database for station/object W3AJR. If no packets are shown the sender has not sent any weather packets the latest 10 day(s).
| Time | Temp. | Humidity | Pressure | Rain* | Wind** | Luminosity | Snow |
|---|---|---|---|---|---|---|---|
| 1777720242 | 8.33° C | 74% | 1013.9 hPa | 0 mm | - | 42 W/m² | - |
| 1777719939 | 8.33° C | 74% | 1013.6 hPa | 0 mm | - | 34 W/m² | - |
| 1777719637 | 8.33° C | 74% | 1013.8 hPa | 0 mm | - | 32 W/m² | - |
| 1777719333 | 8.33° C | 74% | 1013.8 hPa | 0 mm | - | 31 W/m² | - |
| 1777719031 | 8.89° C | 74% | 1013.8 hPa | 0 mm | - | 22 W/m² | - |
| 1777718728 | 8.89° C | 74% | 1013.7 hPa | 0 mm | - | 15 W/m² | - |
| 1777718426 | 8.89° C | 73% | 1013.6 hPa | 0 mm | - | 10 W/m² | - |
| 1777718123 | 9.44° C | 71% | 1013.5 hPa | 0 mm | - | 11 W/m² | - |
| 1777717821 | 9.44° C | 71% | 1013.4 hPa | 0 mm | - | 6 W/m² | - |
| 1777717517 | 9.44° C | 72% | 1013.3 hPa | 0 mm | - | 2 W/m² | - |
| 1777717214 | 9.44° C | 72% | 1013.4 hPa | 0 mm | - | 1 W/m² | - |
| 1777716912 | 9.44° C | 72% | 1013.2 hPa | 0 mm | - | 0 W/m² | - |
| 1777716610 | 9.44° C | 70% | 1013.4 hPa | 0 mm | - | 0 W/m² | - |
| 1777716309 | 9.44° C | 73% | 1013.4 hPa | 0 mm | - | 0 W/m² | - |
| 1777716006 | 9.44° C | 75% | 1013.2 hPa | 0 mm | - | 0 W/m² | - |
| 1777715703 | 9.44° C | 77% | 1013.2 hPa | 0 mm | - | 0 W/m² | - |
| 1777715401 | 9.44° C | 76% | 1013 hPa | 0 mm | - | 0 W/m² | - |
| 1777715098 | 9.44° C | 77% | 1013.1 hPa | 0 mm | - | 0 W/m² | - |
| 1777714796 | 9.44° C | 77% | 1013 hPa | 0 mm | - | 0 W/m² | - |
| 1777714495 | 10° C | 77% | 1012.9 hPa | 0 mm | - | 0 W/m² | - |
| 1777714191 | 10° C | 76% | 1013 hPa | 0 mm | - | 0 W/m² | - |
| 1777713889 | 10° C | 76% | 1013 hPa | 0 mm | - | 0 W/m² | - |
| 1777713587 | 10° C | 76% | 1012.6 hPa | 0 mm | - | 0 W/m² | - |
| 1777713283 | 10° C | 75% | 1012.7 hPa | 0 mm | - | 0 W/m² | - |
| 1777712980 | 10.56° C | 75% | 1012.4 hPa | 0 mm | - | 0 W/m² | - |
* Rain latest hour (hover to see other rain measurements)
** Current wind speed in m/s (hover to see current wind gust speed)